Location: Cap de Bouirex
(42.8683°N, 1.1168°E)
Time: 17:05:45
(UTC+00:00)

Daily predictions for brighter satellites

Satellite Brightness Start Highest point End
(mag) Time Altitude Azimuth Time Altitude Azimuth Time Altitude Azimuth
Cosmos 1725 Rocket 4.1 17:41:24 10° N 17:47:41 90° E 17:53:58 10° S
Meteor 1-11 4.3 17:44:29 10° S 17:50:05 83° E 17:55:50 10° NNE
Cosmos 2151 Rocket 3.6 17:46:47 10° N 17:51:18 68° E 17:55:45 10° SSE
Cosmos 1607 4.5 17:47:36 10° SW 17:53:37 61° NW 17:59:46 10° NNE
Radarsat Rocket 4.4 17:48:19 10° SE 17:53:44 41° ENE 17:59:31 10° N
SL-08 R/B 4.5 17:47:52 10° N 17:54:02 81° E 18:00:07 10° S
Cosmos 44 Rocket 4.1 17:52:55 10° S 17:57:15 33° ESE 18:01:44 10° NE
YAOGAN 1 2.8 17:53:58 10° SE 17:58:00 44° ENE 18:02:04 10° N
Cosmos 1455 Rocket 4.0 17:55:14 10° NNE 17:58:49 25° ENE 18:02:24 10° SE
PSLV R/B 4.3 17:55:24 10° SE 17:58:54 28° ENE 18:02:24 10° N
Cosmos 2297 Rocket 2.3 17:54:26 10° S 17:59:57 56° ESE 18:05:29 10° NNE
Lacrosse 5 rocket 3.5 18:00:27 10° NW 18:02:21 14° NNW 18:04:16 10° NNE
COSMO-SKYMED 1 2.9 17:58:32 10° NNE 18:02:27 40° E 18:06:18 10° S
SPOT 1/Viking Rocket 3.6 17:59:46 10° SSE 18:04:53 89° W 18:10:03 10° NNW
CZ-2D R/B 3.6 18:04:07 10° SE 18:07:51 46° ENE 18:11:41 10° N
Aureole 3 Rocket 2.9 18:05:44 10° N 18:09:13 38° ENE 18:12:10 10° SE
Cosmos 2061 Rocket 4.0 18:02:59 10° N 18:09:22 79° E 18:15:39 10° S
CZ-4C R/B 2.9 18:07:37 10° WSW 18:11:35 41° NW 18:16:34 10° NNE
Meteor 2-1 Rocket 4.3 18:05:54 10° N 18:11:45 79° E 18:17:40 10° SSE
Okean 1 Rocket 3.0 18:09:54 10° N 18:14:18 77° E 18:18:38 10° SSE
Cosmos 1356 Rocket 3.9 18:10:47 10° NNW 18:14:40 62° W 18:18:36 10° S
Cosmos 2344 4.3 18:10:17 10° S 18:17:19 31° ESE 18:23:30 10° NE
Cosmos 2221 Rocket 3.6 18:13:41 10° S 18:18:08 89° E 18:22:39 10° N
Cosmos 1602 4.3 18:16:39 10° SE 18:18:42 19° E 18:19:20 18° ENE
Okean 2 Rocket 3.2 18:15:09 10° N 18:19:33 79° W 18:23:54 10° S
USA 267 4.2 18:16:28 10° NE 18:22:33 43° NNW 18:28:36 10° W
SJ-6B 3.7 18:20:20 11° ESE 18:22:49 21° ENE 18:25:29 10° NNE
Cosmos 2263 Rocket 3.2 18:24:07 10° SSE 18:28:31 24° ESE 18:31:44 15° ENE
Cosmos 1025 Rocket 3.9 18:24:33 10° SSW 18:28:45 52° W 18:33:00 10° N
ATLAS 5 CENTAUR R/B 4.3 18:25:41 10° WNW 18:29:32 25° WSW 18:34:02 10° S
Cosmos 1980 3.6 18:26:08 10° NNW 18:31:49 74° ENE 18:37:27 10° SSE
Sich 1 Rocket 4.0 18:30:02 10° NNW 18:34:34 69° W 18:39:04 10° S
COSMOS 2428 3.8 18:29:33 10° NW 18:35:02 48° WSW 18:40:28 10° S
Cosmos 2237 Rocket 2.1 18:31:24 10° NNW 18:37:07 75° ENE 18:42:48 10° SSE
SJ-7 4.1 18:35:32 10° SSE 18:39:13 87° W 18:42:54 10° NNW
Resurs 1-3 4.2 18:35:18 10° S 18:39:31 59° W 18:43:48 10° NNW
Meteor 1-27 4.2 18:34:05 10° N 18:39:52 67° ENE 18:45:39 10° SSE
SeaSat 1 3.4 18:35:51 10° S 18:40:35 50° WSW 18:45:21 10° NW
Cosmos 1570 Rocket 4.0 18:36:00 10° SSW 18:41:17 87° WNW 18:46:34 10° NNE
Resurs 01 Rocket 1.6 18:37:40 10° SSE 18:41:59 61° ENE 18:46:21 10° N
Cosmos 1125 Rocket 4.0 18:38:10 10° NNW 18:43:18 63° WSW 18:48:25 10° S
SPOT 5 3.9 18:45:52 25° ENE 18:46:31 25° ENE 18:50:37 10° N
DMSP B5D1-3 4.4 18:49:46 10° NNE 18:54:55 84° ESE 19:00:01 10° SSW
Tiangong -1.9 18:52:05 10° WSW 18:55:13 56° S 18:55:41 49° SE
NOAA 6 4.2 18:52:42 10° S 18:57:50 75° WSW 19:03:00 10° NNW
USA 234 4.1 18:52:18 10° SSE 18:58:35 48° SW 19:04:53 10° WNW
Cosmos 2227 Rocket 2.1 18:53:37 10° SSW 18:59:12 72° ESE 19:04:52 10° NNE
Cosmos 773 Rocket 4.2 18:56:55 10° SSW 19:02:10 74° WNW 19:07:28 10° NNE
Cosmos 2208 Rocket 4.1 18:57:10 10° SSW 19:02:23 80° WNW 19:07:43 10° NNE
Cosmos 1346 Rocket 2.5 18:58:53 10° S 19:02:24 56° E 19:02:50 52° ENE
CARTOSAT-1 4.1 18:58:40 10° S 19:02:48 57° W 19:06:57 10° NNW
SL-16 R/B 2.8 18:57:41 10° N 19:02:54 36° ENE 19:03:58 33° E
Tsikada Rocket 4.4 19:00:40 10° SSE 19:06:06 34° E 19:11:35 10° NNE
BREEZE-M DEB (TANK) 4.3 19:14:36 10° WNW 19:18:56 89° NE 19:26:43 25° ESE
ARIANE 6 FM1 Upper Stage 4.3 19:19:11 10° NNW 19:21:05 21° N 19:21:05 21° N
Gbstr 26 Del rocket 4.2 19:16:43 10° SW 19:23:24 69° SE 19:26:28 38° ENE
Terra 4.2 19:30:49 10° NNE 19:30:49 10° NNE 19:30:52 10° NNE
Cosmos 1816 Rocket 4.4 19:21:59 10° S 19:28:07 85° W 19:34:23 10° N
CZ-4B DEB 4.4 19:29:06 47° NE 19:29:06 47° NE 19:33:51 10° N
Helios 1A Rocket 3.4 19:31:19 43° WSW 19:31:19 43° WSW 19:33:53 10° SSW
Atlas Centaur 2 4.0 19:24:51 10° WSW 19:30:59 26° SSW 19:33:53 20° SSE
Cosmos 2150 Rocket 4.2 19:26:04 10° NNW 19:31:11 69° WSW 19:34:58 18° S
CSL-04 Debris 4.1 19:30:41 57° ESE 19:31:23 62° ENE 19:36:44 10° N
Cosmos 1544 Rocket 4.3 19:27:14 10° N 19:30:03 39° N 19:30:03 39° N
BREEZE-M (TANK) 3.5 19:29:58 10° WNW 19:33:16 71° SSW 19:36:14 35° SE
Cosmos 2298 Rocket 4.2 19:29:10 10° NNW 19:34:26 69° WSW 19:38:04 20° S
Cosmos 1975 Rocket 4.2 19:31:18 10° SSW 19:35:25 42° WNW 19:39:33 10° N
CSL-04 Rocket 3.4 19:35:11 61° SE 19:36:01 74° ENE 19:41:17 10° N
Cosmos 2034 Rocket 3.8 19:30:33 10° N 19:36:44 83° E 19:42:58 10° S
NOSS 3-4 (A) 4.1 19:30:18 10° NW 19:37:15 72° WSW 19:43:28 18° SSE
NOSS 3-4 (C) 4.1 19:30:35 10° NW 19:37:33 73° WSW 19:43:37 19° SSE
Cosmos 1782 3.8 19:34:54 10° NNW 19:37:19 37° NW 19:37:19 37° NW
Cosmos 2228 4.0 19:34:49 10° NNW 19:38:49 45° W 19:42:49 10° SSW
Cosmos 1634 Rocket 4.3 19:37:58 10° N 19:43:03 48° NE 19:43:03 48° NE
Cosmos 2297 Rocket 4.3 19:39:46 10° WSW 19:44:20 24° NW 19:48:55 10° N
DNEPR-1 R/B 4.4 19:48:18 10° NW 19:53:22 66° WSW 19:54:28 54° S
BREEZE-M DEB (TANK) 3.9 19:36:15 10° W 19:55:10 72° N 19:56:30 57° NE
Cosmos 2219 3.7 19:53:08 10° SSW 19:57:13 48° S 19:57:13 48° S
BREEZE-M DEB (TANK) 3.8 19:57:11 10° WSW 20:01:28 88° NNW 20:04:47 45° ENE
Cosmos 2263 Rocket 2.9 20:06:30 10° SW 20:12:00 52° WNW 20:13:31 41° NNW
SPOT 5 4.2 20:24:55 37° WNW 20:24:55 37° WNW 20:28:54 10° NNW
Cosmos 2344 4.0 20:23:41 10° WSW 20:31:18 53° NW 20:33:48 38° N
Cosmos 2227 Rocket 4.5 20:39:45 10° W 20:43:49 20° NW 20:47:09 13° N
SL-16 R/B 3.7 20:41:51 10° NW 20:45:52 32° W 20:45:52 32° W
